Location: Kellogg
(38.0159°N, 90.0546°W)
Time: 13:02:09
(UTC+00:00)

Courier 1B - Pass Details

Date: 10 September 2024
Orbit: 962 x 1208 km, 28.3° (Epoch: 11 October)

Event Time Altitude Azimuth Distance (km) Brightness Sun altitude
Rises 22:51:13 0° 246° (WSW) 4,032 12.2 15.7°
Reaches altitude 10° 22:54:12 10° 239° (WSW) 3,095 11.6 15.1°
Maximum altitude 23:01:15 39° 173° (S) 1,715 9.0 13.7°
Drops below altitude 10° 23:08:24 10° 108° (ESE) 3,138 9.6 12.3°
Sets 23:11:27 0° 101° (E) 4,093 10.1 11.7°
